| time (UTC) | temp F | wind direction | speed MPH | gust MPH | rain 1hr in | rain 24hr in | rain mn in | humidity % | barometer mb |
| 20260904034932 | 71 | 29 | 13.0 | 16.0 | 0.00 | 0.33 | 0.33 | 99 | 1018.7 |
| 20260904034427 | 71 | 29 | 13.0 | 16.0 | 0.00 | 0.33 | 0.33 | 99 | 1018.6 |
| 20260904033923 | 71 | 29 | 13.0 | 16.0 | 0.00 | 0.33 | 0.33 | 99 | 1018.9 |
| 20260904033419 | 71 | 29 | 13.0 | 16.0 | 0.00 | 0.33 | 0.33 | 99 | 1018.9 |
| 20260904032915 | 71 | 29 | 13.0 | 16.0 | 0.00 | 0.33 | 0.33 | 99 | 1018.9 |
| 20260904032410 | 71 | 29 | 13.0 | 16.0 | 0.00 | 0.33 | 0.33 | 99 | 1018.9 |
| 20260904031910 | 71 | 29 | 13.0 | 16.0 | 0.00 | 0.33 | 0.33 | 99 | 1018.9 |
| 20260904031405 | 71 | 29 | 13.0 | 16.0 | 0.00 | 0.33 | 0.33 | 99 | 1018.9 |
| 20260904030902 | 71 | 29 | 13.0 | 16.0 | 0.00 | 0.33 | 0.33 | 99 | 1019.2 |
| 20260904030357 | 71 | 29 | 13.0 | 16.0 | 0.00 | 0.33 | 0.33 | 99 | 1019.1 |
| 20260904025852 | 71 | 29 | 13.0 | 16.0 | 0.00 | 0.33 | 0.33 | 99 | 1019.3 |
| 20260904025348 | 71 | 29 | 13.0 | 16.0 | 0.00 | 0.33 | 0.33 | 99 | 1019.3 |
| 20260904024848 | 72 | 29 | 13.0 | 16.0 | 0.00 | 0.33 | 0.33 | 99 | 1019.4 |
| 20260904024343 | 72 | 29 | 13.0 | 16.0 | 0.00 | 0.33 | 0.33 | 99 | 1019.3 |
| 20260904023839 | 71 | 29 | 13.0 | 16.0 | 0.00 | 0.33 | 0.33 | 99 | 1019.5 |
| 20260904023335 | 71 | 29 | 13.0 | 16.0 | 0.00 | 0.33 | 0.33 | 99 | 1019.5 |
| 20260904022834 | 71 | 29 | 13.0 | 16.0 | 0.00 | 0.33 | 0.33 | 98 | 1019.4 |
| 20260904022331 | 72 | 29 | 13.0 | 16.0 | 0.00 | 0.33 | 0.33 | 98 | 1019.5 |
| 20260904021828 | 72 | 29 | 13.0 | 16.0 | 0.00 | 0.33 | 0.33 | 98 | 1019.6 |
| 20260904021327 | 72 | 29 | 13.0 | 16.0 | 0.00 | 0.33 | 0.33 | 98 | 1019.6 |
| 20260904020823 | 72 | 29 | 13.0 | 16.0 | 0.00 | 0.33 | 0.33 | 98 | 1019.8 |
| 20260904020318 | 72 | 29 | 13.0 | 16.0 | 0.00 | 0.33 | 0.33 | 98 | 1019.6 |
| 20260904015816 | 72 | 29 | 13.0 | 16.0 | 0.00 | 0.33 | 0.33 | 98 | 1019.7 |
| 20260904015312 | 72 | 29 | 13.0 | 16.0 | 0.00 | 0.33 | 0.33 | 98 | 1019.9 |
| 20260904014810 | 72 | 29 | 13.0 | 16.0 | 0.00 | 0.33 | 0.33 | 98 | 1019.6 |
| 20260904014311 | 72 | 29 | 13.0 | 16.0 | 0.00 | 0.33 | 0.33 | 98 | 1019.8 |
| 20260904013807 | 72 | 29 | 13.0 | 16.0 | 0.00 | 0.33 | 0.33 | 97 | 1019.9 |
| 20260904013302 | 72 | 29 | 13.0 | 16.0 | 0.00 | 0.33 | 0.33 | 97 | 1020.0 |
| 20260904012758 | 73 | 29 | 13.0 | 16.0 | 0.00 | 0.33 | 0.33 | 97 | 1019.9 |
| 20260904012253 | 73 | 29 | 13.0 | 16.0 | 0.00 | 0.33 | 0.33 | 97 | 1020.0 |
| 20260904011752 | 73 | 29 | 13.0 | 16.0 | 0.00 | 0.33 | 0.33 | 97 | 1019.9 |
| 20260904011247 | 73 | 29 | 13.0 | 16.0 | 0.00 | 0.33 | 0.33 | 97 | 1019.8 |
| 20260904010742 | 73 | 29 | 13.0 | 16.0 | 0.00 | 0.33 | 0.33 | 97 | 1019.8 |
| 20260904010238 | 73 | 29 | 13.0 | 16.0 | 0.00 | 0.33 | 0.33 | 97 | 1019.9 |
| 20260904005733 | 73 | 29 | 13.0 | 16.0 | 0.00 | 0.33 | 0.33 | 96 | 1019.8 |
| 20260904005229 | 73 | 29 | 13.0 | 16.0 | 0.00 | 0.33 | 0.33 | 96 | 1019.8 |
| 20260904004724 | 73 | 29 | 13.0 | 16.0 | 0.00 | 0.33 | 0.33 | 96 | 1019.6 |
| 20260904004220 | 73 | 29 | 13.0 | 16.0 | 0.00 | 0.33 | 0.33 | 96 | 1019.5 |
| 20260904003714 | 73 | 29 | 13.0 | 16.0 | 0.00 | 0.33 | 0.33 | 96 | 1019.5 |
| 20260904003210 | 73 | 29 | 13.0 | 16.0 | 0.00 | 0.33 | 0.33 | 96 | 1019.6 |
| 20260904002700 | 73 | 29 | 13.0 | 16.0 | 0.00 | 0.33 | 0.33 | 95 | 1019.5 |
| 20260904002155 | 73 | 29 | 13.0 | 16.0 | 0.00 | 0.33 | 0.33 | 95 | 1019.6 |
| 20260904001645 | 73 | 29 | 13.0 | 16.0 | 0.00 | 0.33 | 0.33 | 95 | 1019.8 |
| 20260904001144 | 74 | 29 | 13.0 | 16.0 | 0.00 | 0.33 | 0.33 | 96 | 1019.4 |
| 20260904000639 | 74 | 29 | 13.0 | 16.0 | 0.00 | 0.33 | 0.33 | 96 | 1019.6 |
| 20260904000134 | 74 | 29 | 13.0 | 16.0 | 0.00 | 0.33 | 0.33 | 96 | 1019.5 |
| 20260903235634 | 74 | 29 | 13.0 | 16.0 | 0.00 | 0.33 | 0.33 | 96 | 1019.1 |
| 20260903235130 | 74 | 29 | 13.0 | 16.0 | 0.00 | 0.33 | 0.33 | 95 | 1019.1 |
| 20260903234625 | 74 | 29 | 13.0 | 16.0 | 0.00 | 0.33 | 0.33 | 95 | 1019.0 |
| 20260903234121 | 74 | 29 | 13.0 | 16.0 | 0.00 | 0.33 | 0.33 | 95 | 1019.0 |
| 20260903233617 | 74 | 29 | 13.0 | 16.0 | 0.00 | 0.33 | 0.33 | 95 | 1019.1 |
| 20260903233113 | 75 | 29 | 13.0 | 16.0 | 0.00 | 0.33 | 0.33 | 95 | 1019.1 |
| 20260903232607 | 75 | 29 | 13.0 | 16.0 | 0.00 | 0.33 | 0.33 | 95 | 1019.1 |
| 20260903232103 | 75 | 29 | 13.0 | 16.0 | 0.00 | 0.33 | 0.33 | 95 | 1019.0 |
| 20260903231556 | 75 | 29 | 13.0 | 16.0 | 0.00 | 0.33 | 0.33 | 94 | 1019.0 |
| 20260903231051 | 75 | 29 | 13.0 | 16.0 | 0.00 | 0.33 | 0.33 | 94 | 1019.0 |
| 20260903230548 | 76 | 29 | 13.0 | 16.0 | 0.00 | 0.33 | 0.33 | 94 | 1019.1 |
| 20260903230045 | 76 | 29 | 13.0 | 16.0 | 0.00 | 0.33 | 0.33 | 93 | 1019.0 |
| 20260903225543 | 76 | 29 | 13.0 | 16.0 | 0.00 | 0.33 | 0.33 | 92 | 1018.9 |
| 20260903225040 | 76 | 29 | 13.0 | 16.0 | 0.00 | 0.33 | 0.33 | 92 | 1019.0 |
| 20260903224535 | 76 | 29 | 13.0 | 16.0 | 0.00 | 0.33 | 0.33 | 92 | 1019.0 |
| 20260903224032 | 76 | 29 | 13.0 | 16.0 | 0.00 | 0.33 | 0.33 | 92 | 1019.1 |
| 20260903223531 | 76 | 29 | 13.0 | 16.0 | 0.00 | 0.33 | 0.33 | 93 | 1019.1 |
| 20260903223030 | 76 | 29 | 13.0 | 16.0 | 0.00 | 0.33 | 0.33 | 93 | 1019.3 |
| 20260903222525 | 76 | 29 | 13.0 | 16.0 | 0.00 | 0.33 | 0.33 | 92 | 1019.2 |
| 20260903222024 | 76 | 29 | 13.0 | 16.0 | 0.00 | 0.33 | 0.33 | 91 | 1019.3 |
| 20260903221520 | 77 | 29 | 13.0 | 16.0 | 0.00 | 0.33 | 0.33 | 91 | 1019.3 |
| 20260903221016 | 77 | 29 | 13.0 | 16.0 | 0.00 | 0.33 | 0.33 | 91 | 1019.4 |
| 20260903220511 | 77 | 29 | 13.0 | 16.0 | 0.00 | 0.33 | 0.33 | 91 | 1019.4 |
| 20260903220010 | 77 | 29 | 13.0 | 16.0 | 0.00 | 0.33 | 0.33 | 90 | 1019.4 |
| 20260903215505 | 77 | 29 | 13.0 | 16.0 | 0.00 | 0.33 | 0.33 | 89 | 1019.4 |
| 20260903215004 | 78 | 29 | 13.0 | 16.0 | 0.00 | 0.33 | 0.33 | 88 | 1019.4 |
| 20260903214459 | 79 | 29 | 13.0 | 16.0 | 0.00 | 0.33 | 0.33 | 86 | 1019.4 |
| 20260903213958 | 79 | 29 | 13.0 | 16.0 | 0.00 | 0.33 | 0.33 | 86 | 1019.3 |
| 20260903213454 | 80 | 29 | 13.0 | 16.0 | 0.00 | 0.33 | 0.33 | 83 | 1019.4 |
| 20260903212950 | 81 | 29 | 13.0 | 16.0 | 0.00 | 0.33 | 0.33 | 84 | 1019.3 |
| 20260903212446 | 82 | 29 | 13.0 | 16.0 | 0.00 | 0.33 | 0.33 | 79 | 1019.3 |
| 20260903211945 | 83 | 29 | 13.0 | 16.0 | 0.00 | 0.33 | 0.33 | 77 | 1019.2 |
| 20260903211446 | 83 | 29 | 13.0 | 16.0 | 0.00 | 0.33 | 0.33 | 74 | 1019.1 |
| 20260903210943 | 85 | 29 | 13.0 | 16.0 | 0.00 | 0.33 | 0.33 | 76 | 1019.1 |
| 20260903210442 | 85 | 29 | 13.0 | 16.0 | 0.00 | 0.33 | 0.33 | 77 | 1018.9 |
| 20260903205937 | 84 | 29 | 13.0 | 16.0 | 0.00 | 0.33 | 0.33 | 73 | 1019.0 |
| 20260903205432 | 85 | 29 | 13.0 | 16.0 | 0.00 | 0.33 | 0.33 | 76 | 1019.2 |
| 20260903204927 | 83 | 29 | 13.0 | 16.0 | 0.00 | 0.33 | 0.33 | 75 | 1019.2 |
| 20260903204423 | 82 | 29 | 13.0 | 16.0 | 0.00 | 0.33 | 0.33 | 82 | 1019.3 |
| 20260903203918 | 82 | 29 | 13.0 | 16.0 | 0.00 | 0.33 | 0.33 | 78 | 1019.2 |
| 20260903203414 | 82 | 29 | 13.0 | 16.0 | 0.00 | 0.33 | 0.33 | 76 | 1019.3 |
| 20260903202913 | 83 | 29 | 13.0 | 16.0 | 0.00 | 0.33 | 0.33 | 76 | 1019.4 |
| 20260903202409 | 84 | 29 | 13.0 | 16.0 | 0.00 | 0.33 | 0.33 | 74 | 1019.2 |
| 20260903201909 | 82 | 29 | 13.0 | 16.0 | 0.00 | 0.33 | 0.33 | 77 | 1019.3 |
| 20260903201404 | 83 | 29 | 13.0 | 16.0 | 0.00 | 0.33 | 0.33 | 77 | 1019.5 |
| 20260903200903 | 82 | 29 | 13.0 | 16.0 | 0.00 | 0.33 | 0.33 | 77 | 1019.6 |
| 20260903200358 | 81 | 29 | 13.0 | 16.0 | 0.00 | 0.33 | 0.33 | 81 | 1019.6 |
| 20260903195853 | 82 | 29 | 13.0 | 16.0 | 0.00 | 0.33 | 0.33 | 78 | 1019.7 |
| 20260903195350 | 82 | 29 | 13.0 | 16.0 | 0.00 | 0.33 | 0.33 | 77 | 1019.5 |
| 20260903194844 | 82 | 29 | 13.0 | 16.0 | 0.00 | 0.33 | 0.33 | 77 | 1019.4 |
| 20260903194340 | 83 | 29 | 13.0 | 16.0 | 0.00 | 0.33 | 0.33 | 74 | 1019.4 |
| 20260903193835 | 83 | 29 | 13.0 | 16.0 | 0.00 | 0.33 | 0.33 | 74 | 1019.4 |
| 20260903193332 | 84 | 29 | 13.0 | 16.0 | 0.00 | 0.33 | 0.33 | 73 | 1019.7 |
| 20260903192827 | 83 | 29 | 13.0 | 16.0 | 0.00 | 0.33 | 0.33 | 78 | 1019.6 |
| 20260903192322 | 82 | 29 | 13.0 | 16.0 | 0.00 | 0.33 | 0.33 | 80 | 1019.5 |
| 20260903191818 | 81 | 29 | 13.0 | 16.0 | 0.00 | 0.33 | 0.33 | 80 | 1019.6 |
| 20260903191313 | 81 | 29 | 13.0 | 16.0 | 0.00 | 0.33 | 0.33 | 79 | 1019.8 |
| 20260903190807 | 80 | 29 | 13.0 | 16.0 | 0.00 | 0.33 | 0.33 | 77 | 1019.7 |
| 20260903190302 | 81 | 29 | 13.0 | 16.0 | 0.00 | 0.33 | 0.33 | 75 | 1019.8 |
| 20260903185756 | 85 | 29 | 13.0 | 16.0 | 0.00 | 0.33 | 0.33 | 73 | 1020.1 |
| 20260903185251 | 84 | 29 | 13.0 | 16.0 | 0.00 | 0.33 | 0.33 | 74 | 1019.8 |
| 20260903184748 | 82 | 29 | 13.0 | 16.0 | 0.00 | 0.33 | 0.33 | 76 | 1019.9 |
| 20260903184243 | 84 | 29 | 13.0 | 16.0 | 0.00 | 0.33 | 0.33 | 73 | 1019.8 |
| 20260903183738 | 83 | 29 | 13.0 | 16.0 | 0.00 | 0.33 | 0.33 | 75 | 1019.9 |
| 20260903183233 | 81 | 29 | 13.0 | 16.0 | 0.00 | 0.33 | 0.33 | 77 | 1019.9 |
| 20260903182732 | 82 | 29 | 13.0 | 16.0 | 0.00 | 0.33 | 0.33 | 78 | 1020.0 |
| 20260903182227 | 80 | 29 | 13.0 | 16.0 | 0.00 | 0.33 | 0.33 | 77 | 1020.1 |
| 20260903181725 | 79 | 29 | 13.0 | 16.0 | 0.00 | 0.33 | 0.33 | 83 | 1019.9 |
| 20260903181215 | 79 | 29 | 13.0 | 16.0 | 0.00 | 0.33 | 0.33 | 82 | 1020.2 |
| 20260903180710 | 80 | 29 | 13.0 | 16.0 | 0.00 | 0.33 | 0.33 | 80 | 1020.3 |
| 20260903180204 | 80 | 29 | 13.0 | 16.0 | 0.00 | 0.33 | 0.33 | 80 | 1020.2 |
| 20260903175703 | 81 | 29 | 13.0 | 16.0 | 0.00 | 0.33 | 0.33 | 79 | 1020.2 |
| 20260903175202 | 82 | 29 | 13.0 | 16.0 | 0.00 | 0.33 | 0.33 | 77 | 1020.0 |
| 20260903174657 | 80 | 29 | 13.0 | 16.0 | 0.00 | 0.33 | 0.33 | 81 | 1020.1 |
| 20260903174151 | 79 | 29 | 13.0 | 16.0 | 0.00 | 0.33 | 0.33 | 82 | 1020.1 |
| 20260903173646 | 79 | 29 | 13.0 | 16.0 | 0.00 | 0.33 | 0.33 | 79 | 1020.1 |
| 20260903173143 | 78 | 29 | 13.0 | 16.0 | 0.00 | 0.33 | 0.33 | 83 | 1020.3 |
| 20260903172643 | 79 | 29 | 13.0 | 16.0 | 0.00 | 0.33 | 0.33 | 80 | 1020.3 |
| 20260903172138 | 80 | 29 | 13.0 | 16.0 | 0.00 | 0.33 | 0.33 | 80 | 1020.4 |
| 20260903171638 | 78 | 29 | 13.0 | 16.0 | 0.00 | 0.33 | 0.33 | 84 | 1020.6 |
| 20260903171134 | 78 | 29 | 13.0 | 16.0 | 0.00 | 0.33 | 0.33 | 85 | 1020.4 |
| 20260903170632 | 78 | 29 | 13.0 | 16.0 | 0.00 | 0.33 | 0.33 | 84 | 1020.4 |
| 20260903170128 | 78 | 29 | 13.0 | 16.0 | 0.00 | 0.33 | 0.33 | 82 | 1020.5 |
| 20260903165626 | 77 | 29 | 13.0 | 16.0 | 0.00 | 0.33 | 0.33 | 84 | 1020.9 |
| 20260903165121 | 78 | 29 | 13.0 | 16.0 | 0.00 | 0.33 | 0.33 | 83 | 1020.6 |
| 20260903164616 | 78 | 29 | 13.0 | 16.0 | 0.00 | 0.33 | 0.33 | 85 | 1020.5 |
| 20260903164112 | 78 | 29 | 13.0 | 16.0 | 0.00 | 0.33 | 0.33 | 87 | 1020.4 |
| 20260903163612 | 77 | 29 | 13.0 | 16.0 | 0.00 | 0.33 | 0.33 | 85 | 1020.5 |
| 20260903163108 | 77 | 29 | 13.0 | 16.0 | 0.00 | 0.33 | 0.33 | 84 | 1020.6 |
| 20260903162605 | 76 | 29 | 13.0 | 16.0 | 0.00 | 0.33 | 0.33 | 90 | 1020.7 |
| 20260903162100 | 76 | 29 | 13.0 | 16.0 | 0.00 | 0.33 | 0.33 | 88 | 1020.6 |
| 20260903161555 | 76 | 29 | 13.0 | 16.0 | 0.00 | 0.33 | 0.33 | 84 | 1020.7 |
| 20260903161051 | 76 | 29 | 13.0 | 16.0 | 0.00 | 0.33 | 0.33 | 87 | 1020.7 |
| 20260903160549 | 76 | 29 | 13.0 | 16.0 | 0.00 | 0.33 | 0.33 | 86 | 1021.1 |
| 20260903160045 | 76 | 29 | 13.0 | 16.0 | 0.00 | 0.33 | 0.33 | 86 | 1021.1 |
| 20260903155543 | 76 | 29 | 13.0 | 16.0 | 0.00 | 0.33 | 0.33 | 89 | 1021.2 |
| 20260903155039 | 75 | 29 | 13.0 | 16.0 | 0.00 | 0.33 | 0.33 | 88 | 1021.1 |
| 20260903154535 | 76 | 29 | 13.0 | 16.0 | 0.00 | 0.33 | 0.33 | 86 | 1021.2 |
| 20260903154031 | 75 | 29 | 13.0 | 16.0 | 0.00 | 0.33 | 0.33 | 91 | 1021.2 |
| 20260903153526 | 73 | 29 | 13.0 | 16.0 | 0.00 | 0.33 | 0.33 | 92 | 1021.2 |
| 20260903153022 | 74 | 29 | 13.0 | 16.0 | 0.00 | 0.33 | 0.33 | 92 | 1021.3 |
| 20260903152518 | 73 | 29 | 13.0 | 16.0 | 0.00 | 0.33 | 0.33 | 91 | 1021.2 |
| 20260903152014 | 72 | 29 | 13.0 | 16.0 | 0.00 | 0.33 | 0.33 | 93 | 1021.4 |
| 20260903151514 | 71 | 29 | 13.0 | 16.0 | 0.00 | 0.33 | 0.33 | 96 | 1021.3 |
| 20260903151009 | 72 | 29 | 13.0 | 16.0 | 0.00 | 0.33 | 0.33 | 95 | 1021.5 |
| 20260903150509 | 72 | 29 | 13.0 | 16.0 | 0.00 | 0.33 | 0.33 | 94 | 1021.6 |
| 20260903150003 | 72 | 29 | 13.0 | 16.0 | 0.00 | 0.33 | 0.33 | 95 | 1021.3 |
| 20260903145458 | 71 | 29 | 13.0 | 16.0 | 0.00 | 0.33 | 0.33 | 96 | 1021.3 |
| 20260903144954 | 71 | 29 | 13.0 | 16.0 | 0.00 | 0.33 | 0.33 | 97 | 1021.5 |
| 20260903144453 | 71 | 29 | 13.0 | 16.0 | 0.00 | 0.33 | 0.33 | 97 | 1021.6 |
| 20260903143949 | 70 | 29 | 13.0 | 16.0 | 0.00 | 0.33 | 0.33 | 96 | 1021.6 |
| 20260903143445 | 71 | 29 | 13.0 | 16.0 | 0.00 | 0.33 | 0.33 | 97 | 1021.6 |
| 20260903142940 | 71 | 29 | 13.0 | 16.0 | 0.00 | 0.33 | 0.33 | 97 | 1021.5 |
| 20260903142436 | 71 | 29 | 13.0 | 16.0 | 0.00 | 0.33 | 0.33 | 99 | 1021.5 |
| 20260903141932 | 71 | 29 | 13.0 | 16.0 | 0.00 | 0.33 | 0.33 | 99 | 1021.4 |
| 20260903141427 | 71 | 29 | 13.0 | 16.0 | 0.00 | 0.33 | 0.33 | 99 | 1021.4 |
| 20260903140923 | 70 | 29 | 13.0 | 16.0 | 0.00 | 0.33 | 0.33 | 99 | 1021.5 |
| 20260903140418 | 69 | 29 | 13.0 | 16.0 | 0.00 | 0.33 | 0.33 | 99 | 1021.4 |
| 20260903135908 | 70 | 29 | 13.0 | 16.0 | 0.00 | 0.33 | 0.33 | 99 | 1021.4 |
| 20260903135404 | 69 | 29 | 13.0 | 16.0 | 0.00 | 0.33 | 0.33 | 99 | 1021.4 |
| 20260903134902 | 69 | 29 | 13.0 | 16.0 | 0.00 | 0.33 | 0.33 | 99 | 1021.6 |
| 20260903134357 | 69 | 29 | 13.0 | 16.0 | 0.00 | 0.33 | 0.33 | 99 | 1021.6 |
| 20260903133855 | 69 | 29 | 13.0 | 16.0 | 0.00 | 0.33 | 0.33 | 99 | 1021.6 |
| 20260903133352 | 69 | 29 | 13.0 | 16.0 | 0.00 | 0.33 | 0.33 | 99 | 1021.5 |
| 20260903132852 | 69 | 29 | 13.0 | 16.0 | 0.00 | 0.33 | 0.33 | 99 | 1021.8 |
| 20260903132348 | 69 | 29 | 13.0 | 16.0 | 0.00 | 0.33 | 0.33 | 99 | 1021.7 |
| 20260903131847 | 68 | 29 | 13.0 | 16.0 | 0.00 | 0.33 | 0.33 | 99 | 1021.6 |
| 20260903131347 | 68 | 29 | 13.0 | 16.0 | 0.00 | 0.33 | 0.33 | 99 | 1021.4 |
| 20260903130846 | 68 | 29 | 13.0 | 16.0 | 0.00 | 0.33 | 0.33 | 99 | 1021.8 |
| 20260903130341 | 67 | 29 | 13.0 | 16.0 | 0.00 | 0.33 | 0.33 | 99 | 1022.0 |
| 20260903125839 | 67 | 29 | 13.0 | 16.0 | 0.00 | 0.33 | 0.33 | 99 | 1022.0 |
| 20260903125335 | 67 | 29 | 13.0 | 16.0 | 0.00 | 0.33 | 0.33 | 99 | 1021.8 |
| 20260903124834 | 67 | 29 | 13.0 | 16.0 | 0.00 | 0.33 | 0.33 | 99 | 1022.2 |
| 20260903124330 | 67 | 29 | 13.0 | 16.0 | 0.00 | 0.33 | 0.33 | 99 | 1022.0 |
| 20260903123828 | 67 | 29 | 13.0 | 16.0 | 0.00 | 0.33 | 0.33 | 99 | 1022.0 |
| 20260903123323 | 67 | 29 | 13.0 | 16.0 | 0.00 | 0.33 | 0.33 | 99 | 1022.0 |
| 20260903122821 | 67 | 29 | 13.0 | 16.0 | 0.00 | 0.33 | 0.33 | 99 | 1022.0 |
| 20260903122317 | 67 | 29 | 13.0 | 16.0 | 0.00 | 0.33 | 0.33 | 99 | 1022.0 |
| 20260903121815 | 67 | 29 | 13.0 | 16.0 | 0.00 | 0.33 | 0.33 | 99 | 1022.2 |
| 20260903121311 | 67 | 29 | 13.0 | 16.0 | 0.00 | 0.33 | 0.33 | 99 | 1022.5 |
| 20260903120807 | 67 | 29 | 13.0 | 16.0 | 0.00 | 0.33 | 0.33 | 99 | 1022.5 |
| 20260903120305 | 67 | 29 | 13.0 | 16.0 | 0.00 | 0.33 | 0.33 | 99 | 1022.4 |
| 20260903115804 | 67 | 29 | 13.0 | 16.0 | 0.00 | 0.33 | 0.33 | 99 | 1022.4 |
| 20260903115259 | 67 | 29 | 13.0 | 16.0 | 0.00 | 0.33 | 0.33 | 99 | 1022.5 |
| 20260903114759 | 67 | 29 | 13.0 | 16.0 | 0.00 | 0.33 | 0.33 | 99 | 1022.3 |
| 20260903114255 | 67 | 29 | 13.0 | 16.0 | 0.00 | 0.33 | 0.33 | 99 | 1022.2 |
| 20260903113750 | 67 | 29 | 13.0 | 16.0 | 0.00 | 0.33 | 0.33 | 99 | 1022.4 |
| 20260903113246 | 67 | 29 | 13.0 | 16.0 | 0.00 | 0.33 | 0.33 | 99 | 1022.5 |
| 20260903112741 | 67 | 29 | 13.0 | 16.0 | 0.00 | 0.33 | 0.33 | 99 | 1022.7 |
| 20260903112237 | 67 | 29 | 13.0 | 16.0 | 0.00 | 0.33 | 0.33 | 99 | 1022.4 |
| 20260903111735 | 67 | 29 | 13.0 | 16.0 | 0.00 | 0.33 | 0.33 | 99 | 1022.6 |
| 20260903111231 | 67 | 29 | 13.0 | 16.0 | 0.00 | 0.33 | 0.33 | 99 | 1022.5 |
| 20260903110727 | 67 | 29 | 13.0 | 16.0 | 0.00 | 0.33 | 0.33 | 99 | 1022.4 |
| 20260903110223 | 67 | 29 | 13.0 | 16.0 | 0.00 | 0.33 | 0.33 | 99 | 1022.5 |
| 20260903105722 | 67 | 29 | 13.0 | 16.0 | 0.00 | 0.33 | 0.33 | 99 | 1022.4 |
| 20260903105217 | 67 | 29 | 13.0 | 16.0 | 0.00 | 0.33 | 0.33 | 99 | 1022.5 |
| 20260903104717 | 67 | 29 | 13.0 | 16.0 | 0.00 | 0.33 | 0.33 | 99 | 1022.4 |
| 20260903104212 | 67 | 29 | 13.0 | 16.0 | 0.00 | 0.33 | 0.33 | 99 | 1022.7 |
| 20260903103708 | 67 | 29 | 13.0 | 16.0 | 0.00 | 0.33 | 0.33 | 99 | 1022.5 |
| 20260903103204 | 67 | 29 | 13.0 | 16.0 | 0.00 | 0.33 | 0.33 | 99 | 1022.2 |
| 20260903102659 | 67 | 29 | 13.0 | 16.0 | 0.00 | 0.33 | 0.33 | 99 | 1022.4 |
| 20260903102153 | 67 | 29 | 13.0 | 16.0 | 0.00 | 0.33 | 0.33 | 99 | 1022.2 |
| 20260903101652 | 67 | 29 | 13.0 | 16.0 | 0.00 | 0.33 | 0.33 | 99 | 1022.2 |
| 20260903101148 | 67 | 29 | 13.0 | 16.0 | 0.00 | 0.33 | 0.33 | 99 | 1022.0 |
| 20260903100643 | 67 | 29 | 13.0 | 16.0 | 0.00 | 0.33 | 0.33 | 99 | 1022.0 |
| 20260903100142 | 67 | 29 | 13.0 | 16.0 | 0.00 | 0.33 | 0.33 | 99 | 1021.9 |
| 20260903095640 | 67 | 29 | 13.0 | 16.0 | 0.00 | 0.33 | 0.33 | 99 | 1022.0 |
| 20260903095140 | 67 | 29 | 13.0 | 16.0 | 0.00 | 0.33 | 0.33 | 99 | 1022.1 |
| 20260903094630 | 67 | 29 | 13.0 | 16.0 | 0.00 | 0.33 | 0.33 | 99 | 1021.9 |
| 20260903094125 | 67 | 29 | 13.0 | 16.0 | 0.00 | 0.33 | 0.33 | 99 | 1022.0 |
| 20260903093620 | 67 | 29 | 13.0 | 16.0 | 0.00 | 0.33 | 0.33 | 99 | 1021.7 |
| 20260903093116 | 67 | 29 | 13.0 | 16.0 | 0.00 | 0.33 | 0.33 | 99 | 1021.9 |
| 20260903092615 | 67 | 29 | 13.0 | 16.0 | 0.00 | 0.33 | 0.33 | 99 | 1022.0 |
| 20260903092110 | 67 | 29 | 13.0 | 16.0 | 0.00 | 0.33 | 0.33 | 99 | 1022.0 |
| 20260903091608 | 67 | 29 | 13.0 | 16.0 | 0.00 | 0.33 | 0.33 | 99 | 1022.0 |
| 20260903091102 | 67 | 29 | 13.0 | 16.0 | 0.00 | 0.33 | 0.33 | 99 | 1021.8 |
| 20260903090559 | 66 | 29 | 13.0 | 16.0 | 0.00 | 0.33 | 0.33 | 99 | 1021.7 |
| 20260903090057 | 66 | 29 | 13.0 | 16.0 | 0.00 | 0.33 | 0.33 | 99 | 1021.5 |
| 20260903085556 | 66 | 29 | 13.0 | 16.0 | 0.00 | 0.33 | 0.33 | 99 | 1021.5 |
| 20260903085052 | 66 | 29 | 13.0 | 16.0 | 0.00 | 0.33 | 0.33 | 99 | 1021.9 |
| 20260903084550 | 66 | 29 | 13.0 | 16.0 | 0.02 | 0.33 | 0.33 | 99 | 1021.9 |
| 20260903084045 | 66 | 29 | 13.0 | 16.0 | 0.02 | 0.33 | 0.33 | 99 | 1022.2 |
| 20260903083540 | 66 | 29 | 13.0 | 16.0 | 0.00 | 0.33 | 0.33 | 99 | 1022.1 |
| 20260903083039 | 66 | 29 | 13.0 | 16.0 | 0.00 | 0.33 | 0.33 | 99 | 1022.3 |
| 20260903082534 | 66 | 29 | 13.0 | 16.0 | 0.00 | 0.33 | 0.33 | 99 | 1022.0 |
| 20260903082029 | 66 | 29 | 13.0 | 16.0 | 0.00 | 0.33 | 0.33 | 99 | 1021.9 |
| 20260903081519 | 66 | 29 | 13.0 | 16.0 | 0.00 | 0.33 | 0.33 | 99 | 1021.9 |
| 20260903081015 | 66 | 29 | 13.0 | 16.0 | 0.00 | 0.33 | 0.33 | 99 | 1022.2 |
| 20260903080511 | 66 | 29 | 13.0 | 16.0 | 0.00 | 0.33 | 0.33 | 99 | 1022.2 |
| 20260903080007 | 66 | 29 | 13.0 | 16.0 | 0.02 | 0.33 | 0.33 | 99 | 1022.4 |
| 20260903075502 | 66 | 29 | 13.0 | 16.0 | 0.02 | 0.33 | 0.33 | 99 | 1022.5 |
| 20260903074957 | 66 | 29 | 13.0 | 16.0 | 0.00 | 0.32 | 0.32 | 99 | 1022.7 |
| 20260903074456 | 66 | 29 | 13.0 | 16.0 | 0.00 | 0.32 | 0.32 | 99 | 1022.7 |
| 20260903073951 | 66 | 29 | 13.0 | 16.0 | 0.00 | 0.32 | 0.32 | 99 | 1022.8 |
| 20260903073446 | 66 | 29 | 13.0 | 16.0 | 0.00 | 0.32 | 0.32 | 99 | 1022.6 |
| 20260903072942 | 66 | 29 | 13.0 | 16.0 | 0.00 | 0.32 | 0.32 | 99 | 1022.6 |
| 20260903072438 | 66 | 29 | 13.0 | 16.0 | 0.00 | 0.32 | 0.32 | 99 | 1022.8 |
| 20260903071935 | 66 | 29 | 13.0 | 16.0 | 0.00 | 0.32 | 0.32 | 99 | 1022.8 |
| 20260903071430 | 65 | 29 | 13.0 | 16.0 | 0.00 | 0.32 | 0.32 | 99 | 1022.8 |
| 20260903070926 | 65 | 29 | 13.0 | 16.0 | 0.00 | 0.32 | 0.32 | 99 | 1022.9 |
| 20260903070420 | 65 | 29 | 13.0 | 16.0 | 0.00 | 0.32 | 0.32 | 99 | 1023.0 |
| 20260903065915 | 65 | 29 | 13.0 | 16.0 | 0.00 | 0.32 | 0.32 | 99 | 1022.6 |
| 20260903065414 | 65 | 29 | 13.0 | 16.0 | 0.00 | 0.32 | 0.32 | 99 | 1022.7 |
| 20260903064913 | 65 | 29 | 13.0 | 16.0 | 0.00 | 0.32 | 0.32 | 99 | 1022.9 |
| 20260903064409 | 65 | 29 | 13.0 | 16.0 | 0.00 | 0.32 | 0.32 | 99 | 1022.9 |
| 20260903063905 | 65 | 29 | 13.0 | 16.0 | 0.00 | 0.32 | 0.32 | 99 | 1022.8 |
| 20260903063400 | 65 | 29 | 13.0 | 16.0 | 0.00 | 0.32 | 0.32 | 99 | 1022.5 |
| 20260903062855 | 65 | 29 | 13.0 | 16.0 | 0.00 | 0.32 | 0.32 | 99 | 1022.4 |
| 20260903062350 | 65 | 29 | 13.0 | 16.0 | 0.02 | 0.32 | 0.32 | 99 | 1022.3 |
| 20260903061846 | 65 | 29 | 13.0 | 16.0 | 0.02 | 0.32 | 0.32 | 99 | 1022.7 |
| 20260903061344 | 65 | 29 | 13.0 | 16.0 | 0.05 | 0.32 | 0.32 | 99 | 1023.3 |
| 20260903060841 | 65 | 29 | 13.0 | 16.0 | 0.05 | 0.32 | 0.32 | 99 | 1023.7 |
| 20260903060340 | 65 | 29 | 13.0 | 16.0 | 0.05 | 0.31 | 0.31 | 99 | 1023.9 |
| 20260903055838 | 65 | 29 | 13.0 | 16.0 | 0.05 | 0.31 | 0.31 | 99 | 1023.9 |
| 20260903055337 | 65 | 29 | 13.0 | 16.0 | 0.05 | 0.30 | 0.30 | 99 | 1023.0 |
| 20260903054832 | 65 | 29 | 13.0 | 16.0 | 0.07 | 0.30 | 0.30 | 99 | 1023.0 |
| 20260903054331 | 65 | 29 | 13.0 | 16.0 | 0.09 | 0.29 | 0.29 | 99 | 1023.6 |
| 20260903053828 | 65 | 29 | 13.0 | 16.0 | 0.12 | 0.29 | 0.29 | 99 | 1024.0 |
| 20260903053323 | 65 | 29 | 13.0 | 16.0 | 0.12 | 0.28 | 0.28 | 99 | 1024.5 |
| 20260903052819 | 65 | 29 | 13.0 | 16.0 | 0.21 | 0.27 | 0.27 | 99 | 1024.9 |
| 20260903052314 | 65 | 29 | 13.0 | 16.0 | 0.66 | 0.26 | 0.26 | 99 | 1025.2 |
| 20260903051810 | 65 | 29 | 13.0 | 16.0 | 0.99 | 0.23 | 0.23 | 99 | 1025.3 |
| 20260903051305 | 65 | 29 | 13.0 | 16.0 | 0.76 | 0.13 | 0.13 | 99 | 1025.6 |
| 20260903050800 | 65 | 29 | 13.0 | 16.0 | 0.24 | 0.04 | 0.04 | 99 | 1025.5 |
| 20260903050259 | 65 | 29 | 13.0 | 16.0 | 0.02 | 0.01 | 0.01 | 99 | 1025.2 |
| 20260903045754 | 65 | 29 | 13.0 | 16.0 | 0.00 | 0.00 | 0.00 | 99 | 1024.8 |
| 20260903045250 | 65 | 29 | 13.0 | 16.0 | 0.02 | 0.00 | 0.00 | 99 | 1024.9 |
| 20260903044746 | 65 | 29 | 13.0 | 16.0 | 0.02 | 0.00 | 0.00 | 99 | 1024.7 |
| 20260903044241 | 65 | 29 | 13.0 | 16.0 | 0.00 | 0.00 | 0.00 | 99 | 1024.8 |
| 20260903043738 | 65 | 29 | 13.0 | 16.0 | 0.00 | 0.00 | 0.00 | 99 | 1025.1 |
| 20260903043238 | 65 | 29 | 13.0 | 16.0 | 0.00 | 0.00 | 0.00 | 99 | 1024.8 |
| 20260903042737 | 65 | 29 | 13.0 | 16.0 | 0.00 | 0.00 | 0.00 | 99 | 1025.0 |
| 20260903042232 | 65 | 29 | 13.0 | 16.0 | 0.00 | 0.00 | 0.00 | 99 | 1024.9 |
| 20260903041728 | 65 | 29 | 13.0 | 16.0 | 0.00 | 0.00 | 0.00 | 99 | 1024.9 |
| 20260903041224 | 65 | 29 | 13.0 | 16.0 | 0.00 | 0.00 | 0.00 | 99 | 1025.0 |
| 20260903040719 | 65 | 29 | 13.0 | 16.0 | 0.00 | 0.00 | 0.00 | 99 | 1025.1 |
| 20260903040214 | 65 | 29 | 13.0 | 16.0 | 0.00 | 0.00 | 0.00 | 99 | 1025.0 |
| 20260903035709 | 64 | 29 | 13.0 | 16.0 | 0.00 | 0.15 | 0.15 | 99 | 1025.2 |
| 20260903035205 | 64 | 29 | 13.0 | 16.0 | 0.00 | 0.15 | 0.15 | 99 | 1025.3 |